Temperature
17 16 15 16 17 17 17 17 17 17 18 17 17 17 17 17 18 18 18 19 19 19 20 20 20 19 19 19 18 18 18 18 17 17 17 17 16 16 16 15 15 15 15 15
16 16 17 17 17 18 17 17 17 17 18 18 17 17 17 17 17 18 18 18 19 19 19 19 19 19 19 19 18 18 18 18 17 17 17 17 16 16 16 15 15 15 15 15
16 17 18 18 18 17 17 17 17 17 17 17 17 17 17 17 17 18 18 19 19 19 19 19 19 19 19 19 18 18 18 18 17 17 17 17 16 16 16 16 15 15 15 15
17 18 18 18 18 18 17 18 18 18 17 16 17 16 17 16 16 17 17 18 19 19 19 19 19 19 19 19 19 18 18 18 17 17 17 17 17 16 16 16 15 15 15 15
17 18 18 18 18 18 17 18 18 17 16 16 16 16 16 16 17 16 17 17 18 19 19 19 19 19 19 19 19 18 18 18 17 17 17 17 17 16 16 16 15 15 15 15
17 18 18 18 18 18 17 17 17 16 15 16 16 16 16 15 16 17 17 17 18 19 19 19 19 19 19 19 18 18 18 18 18 17 17 17 17 16 16 16 16 15 15 15
18 18 18 18 18 17 17 16 16 16 16 16 16 16 16 17 17 17 17 17 18 19 19 19 19 19 19 19 18 18 18 18 18 17 17 17 17 16 16 16 16 16 15 15
17 17 18 18 18 17 17 16 16 16 16 16 16 16 17 17 17 18 18 18 18 18 19 19 19 19 19 19 18 18 18 18 18 17 17 17 17 16 16 16 16 16 15 15
17 17 18 18 18 17 16 16 16 15 16 16 16 16 17 16 16 16 17 17 18 18 18 19 19 19 19 18 18 18 18 18 17 17 17 17 17 16 16 16 16 15 15 15
17 17 18 18 18 17 17 15 15 15 16 16 17 17 16 17 16 16 16 17 18 18 18 18 18 19 18 18 18 18 18 17 17 17 17 17 16 16 16 16 16 15 15 15
17 17 18 18 18 17 16 16 15 15 16 16 16 17 17 17 16 16 16 17 18 18 18 18 18 18 18 18 18 18 17 17 17 17 17 16 16 16 16 16 16 15 15 15
16 16 17 18 18 18 18 17 16 16 16 15 15 16 18 17 17 17 17 17 18 19 19 18 18 18 18 18 18 17 17 17 17 17 16 16 16 16 16 16 15 15 15 15
16 16 17 18 18 18 18 17 16 15 14 14 16 17 17 16 16 17 17 17 18 18 18 18 18 18 18 18 17 17 17 17 17 16 16 16 16 16 16 15 15 15 15 15
17 16 17 18 18 18 18 18 16 16 15 15 16 17 17 16 16 16 16 17 18 18 18 18 18 18 18 17 17 17 17 17 16 16 16 16 16 15 15 15 15 15 15 14
17 17 17 18 18 18 19 19 17 17 17 16 17 17 17 17 16 16 17 16 17 17 17 18 18 18 17 17 17 17 17 16 16 16 16 15 15 15 15 15 15 14 14 14
16 17 18 19 19 19 19 18 18 18 17 17 17 17 17 17 17 16 16 16 16 17 17 17 18 18 17 17 17 17 17 16 16 16 16 15 15 15 14 14 14 14 14 14
15 16 17 17 18 19 18 18 18 18 17 17 17 18 16 15 15 16 16 17 17 18 18 18 18 18 18 17 17 17 16 16 16 16 15 15 15 15 14 14 14 14 13 13
15 15 15 16 18 18 18 19 18 18 18 17 17 17 16 16 17 17 18 18 18 18 18 18 18 18 17 17 17 16 16 16 16 15 15 15 14 14 14 14 14 13 13 13
15 15 14 15 17 17 18 19 18 18 18 17 16 16 16 16 16 16 18 18 19 19 18 18 18 18 17 17 17 16 16 16 15 15 15 14 14 14 14 13 13 13 13 12
14 14 14 14 17 17 19 19 19 19 18 17 16 16 15 16 15 16 18 18 18 18 18 18 17 17 17 16 16 16 16 15 15 15 14 14 14 14 13 13 13 12 12 12
15 14 14 14 16 16 17 18 19 19 19 19 18 17 16 16 18 19 19 19 18 18 18 17 17 17 17 16 16 16 15 15 15 14 14 14 14 13 13 13 12 12 12 12
14 14 14 13 16 17 17 17 18 18 19 19 19 18 18 18 19 19 19 19 18 18 17 17 17 16 16 16 16 16 15 15 14 14 14 14 13 13 13 12 12 12 11 11
13 14 13 14 16 16 16 17 19 19 19 19 19 19 19 18 18 19 18 18 18 17 17 17 16 16 16 15 15 15 15 14 14 14 13 13 13 13 12 12 12 11 11 11
13 12 12 13 14 15 16 17 18 19 20 20 20 19 19 19 19 18 18 18 17 17 17 16 16 16 15 15 15 15 14 14 14 13 13 13 12 12 12 12 11 11 11 11
13 12 12 13 13 15 17 17 18 19 19 19 19 19 19 19 18 18 18 17 17 17 16 16 16 15 15 15 14 14 14 13 13 13 13 12 12 12 12 11 11 11 10 10
11 12 13 14 15 14 16 17 18 18 18 18 18 18 18 18 18 18 17 17 17 16 16 15 15 15 15 14 14 14 13 13 13 12 12 12 12 11 11 11 10 10 10 10
Wind_Speed
2 4 3 5 5 4 3 3 2 0 0 2 3 2 2 1 3 4 5 5 5 5 3 4 5 6 7 6 5 5 5 4 4 3 2 2 1 1 2 2 3 4 4 4
4 1 5 5 4 3 3 3 2 1 1 1 1 1 2 2 4 6 6 7 6 5 4 4 5 6 7 6 5 5 5 5 4 3 2 2 2 1 1 1 3 4 4 4
4 3 4 5 4 4 3 4 5 4 2 3 2 3 2 1 1 2 3 5 5 8 8 6 6 6 6 6 6 6 6 5 4 4 3 3 3 3 2 2 2 3 4 3
2 3 4 5 4 5 3 4 6 5 3 1 1 1 4 2 1 3 4 4 6 6 6 7 7 6 6 6 5 5 5 5 4 4 4 4 3 1 1 1 1 2 3 3
2 3 4 4 5 6 3 3 4 3 3 1 1 2 5 1 3 5 5 5 6 6 7 8 8 7 6 5 5 5 5 4 4 4 5 4 3 2 0 1 1 2 3 3
3 2 4 4 3 5 5 6 5 4 3 0 3 3 5 5 7 6 6 6 6 6 7 7 6 6 5 5 4 4 5 4 3 4 4 4 4 3 2 1 1 1 2 2
2 1 2 3 5 2 4 5 2 2 1 3 2 3 7 7 7 8 9 8 7 7 7 7 7 7 6 6 5 5 5 4 3 4 3 3 3 3 3 2 1 0 1 2
2 3 4 4 6 7 6 7 6 5 4 2 1 5 6 4 4 5 6 7 6 7 7 8 8 8 7 6 6 5 5 4 3 3 3 2 2 2 2 2 1 1 1 2
5 3 1 3 3 9 7 4 5 5 2 1 3 5 5 0 2 4 7 8 8 8 7 7 7 7 7 6 6 6 6 4 3 3 3 2 2 2 1 1 1 0 1 1
7 3 2 3 5 4 5 7 5 4 4 2 3 4 4 4 5 6 8 9 8 8 7 7 7 7 6 6 5 5 5 5 3 3 3 2 2 2 2 2 1 1 1 1
4 4 1 2 5 7 5 4 4 4 4 4 2 6 5 8 8 9 9 9 10 9 8 7 6 6 6 5 5 5 5 4 3 3 3 3 2 2 2 2 1 1 1 1
5 4 2 4 3 5 6 7 7 5 4 4 3 6 4 5 7 8 8 7 8 9 8 7 7 7 6 6 5 5 5 5 4 4 4 4 3 3 3 2 2 2 2 2
7 5 3 3 2 1 3 5 5 6 5 5 4 5 3 2 4 5 7 8 8 8 8 7 7 7 6 6 5 5 5 5 4 5 5 4 4 4 3 2 2 3 3 3
6 4 6 8 7 5 4 5 6 6 5 5 7 6 4 3 5 6 7 8 8 9 9 9 7 6 6 6 6 5 5 4 5 5 5 4 3 3 3 3 3 3 3 3
5 4 5 5 4 4 4 6 9 7 8 8 8 8 9 8 9 9 8 8 9 9 9 9 9 7 6 6 5 5 5 5 5 6 5 3 3 3 4 4 4 4 4 4
3 3 2 2 2 3 3 4 8 7 6 6 4 7 5 5 6 7 9 11 10 10 10 10 9 9 8 8 7 6 5 5 6 6 4 3 4 4 4 4 4 4 4 3
4 5 3 2 3 1 4 7 8 6 6 8 9 9 4 5 9 11 11 11 11 11 11 11 10 9 9 8 8 8 6 6 6 5 4 3 4 4 3 3 4 4 3 3
7 5 4 2 2 4 8 4 7 7 6 7 6 5 8 8 7 5 8 11 11 11 11 10 10 9 7 7 7 7 7 7 6 5 4 3 4 3 3 3 3 2 2 2
5 7 5 4 3 5 7 3 6 7 5 6 8 6 6 7 6 1 4 8 10 11 10 9 9 8 8 8 8 8 7 6 6 5 4 3 4 4 3 3 1 1 2 2
5 4 5 4 4 6 7 3 4 5 4 6 9 10 9 9 5 6 6 8 8 9 8 9 8 8 9 8 9 9 8 7 6 5 4 4 4 4 4 3 1 1 1 0
4 3 4 5 5 7 7 2 5 5 8 5 9 11 13 10 7 5 8 8 9 9 9 10 10 9 8 8 9 9 7 6 5 5 4 4 4 4 4 2 1 1 1 1
7 6 6 6 4 8 3 5 8 7 2 5 8 10 10 7 6 7 9 10 11 10 9 10 10 8 7 8 9 9 7 5 5 5 4 3 3 3 3 3 2 1 2 1
5 6 6 8 7 4 3 5 4 2 3 4 7 7 10 9 7 7 8 9 10 10 10 8 9 9 6 6 8 9 6 5 6 5 4 3 3 2 3 3 2 1 1 1
3 2 3 3 6 5 5 4 3 3 4 3 6 9 11 9 9 8 8 8 8 8 9 8 9 9 7 5 6 6 6 6 7 6 4 3 3 2 1 1 2 2 2 1
4 4 2 3 6 5 4 3 1 1 3 6 6 7 9 11 9 8 8 8 8 8 8 8 9 9 8 6 5 5 6 7 6 5 4 3 2 2 1 1 2 3 3 4
4 6 5 6 6 4 4 3 0 3 4 6 8 6 6 8 9 8 8 7 8 8 8 8 8 8 7 7 6 5 6 7 7 5 3 3 2 2 1 1 2 3 4 5
Wind_Direction
86 93 160 188 176 158 144 133 123 198 252 109 149 200 264 206 169 189 192 196 202 211 208 159 155 147 137 138 142 144 140 141 130 113 107 100 78 28 23 18 27 38 41 47
68 214 207 172 161 143 140 129 123 57 43 128 141 262 262 206 191 201 198 196 198 184 164 156 150 149 150 153 154 153 155 154 151 139 127 127 125 94 38 1 23 31 31 33
171 219 167 152 154 162 181 177 178 168 69 48 77 341 297 278 206 185 194 191 189 183 178 172 166 163 156 163 171 170 165 159 151 134 106 86 64 43 28 16 8 6 23 34
220 230 163 157 173 160 208 198 165 154 122 3 93 235 285 259 260 221 211 191 190 186 175 171 170 170 172 177 170 160 157 155 149 138 138 137 134 150 230 274 328 357 23 26
232 177 158 173 189 164 177 135 135 131 130 84 30 159 276 250 225 228 217 200 191 185 175 172 174 174 172 163 159 160 152 149 143 141 147 140 138 155 144 45 28 11 2 11
243 208 177 182 151 148 126 85 74 62 80 141 224 181 261 223 212 207 202 196 187 177 166 161 156 148 149 147 147 149 147 146 139 139 142 148 153 150 131 97 31 356 341 341
318 265 193 142 108 103 117 104 83 34 14 252 222 200 249 237 210 195 189 191 183 169 159 155 154 155 156 157 156 154 152 153 148 143 144 155 164 164 171 179 197 277 328 322
169 261 211 176 163 167 171 149 162 178 199 256 224 233 254 255 212 182 174 168 162 160 161 164 168 164 163 164 158 156 158 157 154 151 154 152 161 160 175 182 187 212 243 264
176 235 250 169 145 139 142 169 163 131 134 161 254 273 299 61 152 160 156 154 165 169 168 168 163 160 162 163 164 163 159 150 151 149 143 143 147 142 141 137 129 198 270 274
160 179 238 147 94 55 142 142 114 129 155 219 273 263 241 222 196 177 169 172 174 168 166 163 160 159 161 161 153 146 150 154 151 142 144 134 132 132 132 114 87 41 351 9
153 153 208 143 182 173 131 127 128 128 151 159 227 267 234 211 195 182 183 179 172 168 166 163 159 151 142 134 131 134 135 128 123 126 117 105 91 88 95 91 72 61 41 50
162 134 190 237 243 175 163 168 155 156 192 174 175 266 287 214 187 175 173 169 163 161 156 152 146 137 134 134 134 135 133 128 127 122 109 102 92 83 76 64 48 60 60 49
149 130 105 357 349 149 168 172 164 135 126 158 172 258 328 130 152 167 165 161 156 149 143 139 139 143 144 141 139 137 134 132 122 113 104 93 84 79 71 57 52 60 68 59
136 137 169 194 214 192 190 180 166 143 158 190 214 233 273 199 180 175 170 166 158 154 152 151 150 151 148 144 144 141 136 131 125 116 106 97 89 89 81 67 62 64 73 71
137 179 211 226 222 181 198 191 181 188 187 188 218 217 231 209 196 185 171 159 152 154 157 161 160 158 151 144 140 137 135 132 128 118 109 107 100 89 80 71 64 63 66 68
134 174 186 283 241 204 230 223 195 202 196 207 221 245 240 182 157 163 167 164 165 167 168 166 161 158 159 155 150 142 139 134 126 121 120 110 101 90 83 79 73 66 58 53
154 145 136 254 300 75 269 231 200 197 198 184 208 225 173 160 178 183 179 175 176 174 170 168 167 166 164 161 155 152 148 133 126 125 119 113 111 102 94 88 78 69 60 58
147 135 138 143 99 229 246 244 186 188 218 207 206 197 177 183 179 173 175 178 178 174 170 170 167 161 156 150 146 141 135 135 134 130 127 127 121 113 102 93 85 68 64 63
151 140 129 134 183 275 287 234 174 176 243 216 198 191 155 132 98 71 195 183 179 174 169 167 163 154 147 148 147 138 137 138 137 144 150 152 144 132 120 112 107 92 79 53
83 110 125 137 163 232 252 251 166 124 268 226 185 180 158 136 150 223 192 171 162 153 150 148 143 137 144 151 145 140 145 147 158 169 167 159 153 147 147 155 148 123 120 115
111 110 147 164 202 254 255 245 129 161 237 203 177 174 165 176 188 169 150 155 152 145 145 144 143 147 155 152 146 144 149 167 175 160 149 143 149 152 153 143 131 118 100 69
173 162 177 157 188 248 249 149 179 215 235 168 171 170 168 158 132 131 139 143 142 139 140 144 145 146 147 151 148 149 165 176 152 141 139 140 141 147 139 135 126 113 111 88
198 192 187 189 210 251 244 223 250 219 201 191 172 164 152 145 149 143 140 143 145 144 145 145 143 140 145 156 154 156 171 156 144 137 140 145 138 136 142 146 147 133 131 148
252 181 167 247 271 276 276 279 278 223 203 183 158 150 150 147 146 142 142 144 144 145 148 146 141 143 152 158 156 161 159 151 141 143 150 149 142 140 138 150 162 165 188 216
221 168 181 258 280 307 308 291 293 87 111 117 121 135 146 141 145 148 148 150 152 149 149 150 153 155 160 157 153 152 151 145 143 148 155 157 158 162 167 189 208 206 220 215
204 184 185 226 233 207 260 296 145 120 122 131 127 120 129 143 147 145 147 151 150 148 148 149 150 151 155 154 154 155 153 151 148 151 163 170 173 179 185 214 296 279 255 268
Height
1496 1502 1506 1504 1504 1506 1508 1511 1514 1513 1509 1512 1515 1515 1512 1511 1512 1514 1515 1517 1518 1520 1523 1526 1528 1531 1534 1536 1538 1540 1541 1543 1544 1545 1546 1546 1546 1546 1546 1546 1545 1544 1543 1542
1501 1503 1500 1500 1502 1504 1508 1513 1515 1514 1510 1512 1515 1515 1512 1511 1512 1512 1514 1515 1517 1519 1522 1525 1527 1530 1533 1535 1538 1540 1542 1543 1544 1545 1546 1546 1546 1546 1546 1546 1545 1545 1544 1543
1501 1500 1497 1500 1503 1506 1508 1512 1513 1515 1513 1512 1516 1518 1514 1511 1511 1512 1513 1514 1516 1518 1520 1523 1526 1529 1532 1535 1537 1540 1541 1543 1544 1545 1546 1547 1547 1547 1547 1546 1546 1545 1545 1544
1498 1496 1497 1500 1503 1504 1510 1506 1508 1512 1518 1524 1521 1530 1518 1513 1512 1511 1512 1513 1515 1517 1519 1522 1525 1529 1532 1535 1537 1539 1541 1543 1544 1545 1546 1547 1547 1547 1547 1547 1546 1546 1545 1544
1498 1495 1497 1500 1501 1501 1506 1504 1507 1512 1518 1525 1523 1529 1523 1514 1514 1511 1510 1511 1513 1515 1518 1521 1524 1528 1531 1534 1537 1539 1541 1543 1544 1545 1546 1547 1547 1547 1547 1547 1547 1546 1546 1545
1495 1493 1494 1496 1497 1499 1503 1508 1511 1516 1522 1531 1525 1528 1525 1515 1510 1508 1508 1509 1511 1514 1517 1520 1524 1527 1530 1533 1536 1538 1541 1542 1544 1545 1546 1547 1547 1547 1547 1547 1547 1547 1546 1545
1497 1494 1493 1494 1500 1502 1505 1516 1527 1531 1535 1533 1522 1524 1519 1504 1502 1502 1504 1506 1509 1513 1516 1519 1523 1526 1529 1532 1535 1538 1540 1542 1543 1544 1545 1546 1547 1547 1547 1547 1547 1547 1546 1546
1504 1504 1494 1492 1496 1502 1506 1512 1527 1536 1537 1532 1523 1524 1511 1499 1498 1499 1502 1505 1508 1511 1515 1518 1521 1525 1528 1531 1534 1537 1539 1541 1542 1543 1545 1545 1546 1547 1547 1547 1547 1547 1546 1546
1502 1502 1490 1489 1491 1495 1506 1511 1511 1523 1527 1531 1526 1516 1505 1498 1498 1498 1500 1504 1507 1510 1514 1517 1521 1524 1527 1530 1533 1536 1538 1540 1541 1543 1544 1545 1545 1546 1546 1547 1547 1547 1546 1546
1492 1499 1492 1490 1492 1496 1498 1504 1516 1522 1531 1533 1523 1518 1512 1501 1499 1498 1499 1501 1505 1509 1512 1516 1519 1523 1526 1529 1532 1535 1537 1539 1540 1542 1543 1544 1544 1545 1545 1546 1546 1546 1546 1546
1488 1497 1496 1493 1495 1498 1502 1506 1510 1518 1520 1530 1531 1520 1496 1494 1493 1495 1497 1499 1502 1507 1511 1515 1518 1522 1525 1528 1531 1533 1536 1538 1539 1540 1541 1542 1543 1544 1544 1545 1545 1545 1545 1545
1487 1496 1501 1494 1488 1487 1492 1498 1505 1515 1520 1521 1524 1517 1489 1489 1490 1492 1495 1498 1502 1505 1509 1514 1517 1521 1524 1527 1529 1532 1534 1536 1538 1539 1540 1541 1542 1543 1543 1544 1544 1544 1544 1544
1485 1495 1504 1502 1499 1493 1492 1494 1497 1504 1514 1521 1522 1511 1489 1488 1490 1492 1494 1497 1501 1505 1509 1513 1516 1520 1523 1526 1528 1531 1533 1535 1537 1538 1539 1540 1541 1542 1542 1543 1543 1543 1543 1543
1480 1490 1497 1502 1496 1490 1491 1492 1494 1500 1510 1514 1510 1502 1492 1490 1490 1492 1494 1496 1499 1503 1507 1511 1515 1518 1522 1525 1528 1530 1532 1534 1536 1538 1539 1539 1540 1541 1541 1541 1542 1541 1541 1541
1478 1487 1486 1485 1482 1483 1485 1486 1490 1493 1496 1502 1497 1495 1489 1487 1488 1489 1492 1495 1498 1502 1506 1509 1513 1517 1521 1524 1526 1529 1531 1533 1535 1537 1538 1539 1539 1540 1540 1540 1540 1540 1540 1540
1478 1483 1483 1484 1481 1482 1484 1483 1484 1487 1489 1491 1491 1489 1481 1483 1486 1488 1491 1493 1496 1500 1504 1508 1512 1515 1519 1522 1525 1528 1530 1532 1534 1535 1537 1538 1538 1539 1539 1540 1540 1539 1539 1539
1480 1483 1488 1491 1484 1483 1489 1480 1480 1482 1482 1484 1487 1482 1479 1482 1484 1485 1487 1490 1493 1497 1501 1505 1509 1513 1517 1520 1524 1526 1529 1531 1533 1534 1535 1536 1537 1538 1538 1539 1539 1539 1538 1538
1477 1483 1491 1493 1489 1497 1482 1469 1470 1474 1475 1475 1474 1474 1476 1477 1479 1482 1485 1487 1491 1495 1499 1504 1507 1512 1516 1519 1523 1525 1528 1530 1531 1533 1534 1535 1536 1537 1537 1537 1538 1537 1537 1537
1472 1480 1490 1496 1496 1490 1476 1468 1469 1473 1474 1469 1471 1472 1475 1477 1480 1483 1484 1487 1489 1493 1498 1502 1506 1510 1514 1518 1521 1524 1526 1528 1530 1531 1532 1533 1534 1535 1536 1536 1536 1536 1536 1535
1474 1477 1487 1495 1494 1495 1476 1463 1463 1468 1475 1465 1466 1468 1472 1476 1484 1482 1481 1485 1489 1493 1497 1501 1505 1509 1513 1516 1519 1522 1524 1526 1528 1529 1531 1532 1533 1534 1534 1535 1535 1535 1535 1534
1480 1483 1487 1492 1492 1484 1466 1462 1464 1478 1472 1460 1461 1464 1468 1470 1472 1475 1478 1482 1487 1491 1496 1500 1504 1507 1511 1514 1517 1520 1522 1524 1526 1528 1529 1530 1531 1532 1533 1533 1533 1533 1533 1533
1477 1482 1486 1489 1490 1484 1461 1462 1465 1462 1456 1456 1458 1461 1464 1467 1471 1474 1477 1481 1485 1490 1494 1498 1502 1506 1509 1513 1515 1517 1520 1522 1524 1526 1527 1528 1529 1530 1531 1531 1531 1531 1531 1530
1473 1472 1473 1474 1472 1462 1459 1458 1457 1456 1456 1456 1457 1460 1463 1466 1470 1473 1477 1480 1484 1488 1493 1497 1500 1504 1507 1511 1513 1515 1518 1520 1522 1524 1525 1526 1527 1528 1529 1529 1529 1529 1528 1528
1468 1467 1468 1468 1462 1458 1457 1456 1455 1455 1455 1455 1457 1459 1462 1465 1469 1473 1476 1480 1484 1488 1491 1495 1499 1502 1505 1508 1511 1514 1516 1518 1520 1521 1523 1524 1525 1526 1526 1526 1526 1526 1526 1525
1464 1466 1467 1466 1460 1457 1454 1454 1454 1454 1454 1455 1457 1460 1462 1466 1469 1473 1475 1479 1483 1486 1490 1494 1497 1500 1503 1506 1509 1512 1514 1516 1517 1519 1520 1521 1522 1523 1523 1523 1524 1523 1523 1522
1461 1462 1464 1462 1457 1457 1455 1454 1454 1454 1455 1456 1457 1460 1463 1466 1469 1472 1475 1479 1482 1485 1488 1492 1495 1498 1501 1504 1506 1509 1511 1513 1515 1516 1517 1519 1519 1520 1520 1520 1521 1520 1520 1519